When you browse on this site, cookies collect data to enhance your experience and personalize the content and advertising you see.
Visit our Privacy Policy to learn more. By continuing to use the site, you agree to this use of cookies and data.
  • In Switzerland
  • List of Countries
  • For 7 days
  • Water Temperature
  • Satellite Maps
  • Weather Map
  • Weather Widgets
  • user-avatar
    Login

    Hourly Weather A'ali

    Today, 25 April, Thursday

    Time Temperature Precipitation Wind Pressure Humidity
    00:00 +23°C° 0 mm 7 mps 761 mmHg 48%
    01:00 +23°C° 0 mm 7 mps 761 mmHg 48%
    02:00 +23°C° 0 mm 7 mps 761 mmHg 49%
    03:00 +23°C° 0 mm 7 mps 760 mmHg 51%
    04:00 +23°C° 0 mm 7 mps 761 mmHg 50%
    05:00 +23°C° 0 mm 7 mps 761 mmHg 50%
    06:00 +23°C° 0 mm 7 mps 762 mmHg 50%
    07:00 +24°C° 0 mm 8 mps 762 mmHg 44%
    08:00 +24°C° 0 mm 8 mps 762 mmHg 39%
    09:00 +26°C° 0 mm 8 mps 762 mmHg 33%
    10:00 +27°C° 0 mm 8 mps 762 mmHg 31%
    11:00 +28°C° 0 mm 8 mps 762 mmHg 28%
    12:00 +28°C° 0 mm 8 mps 762 mmHg 25%
    13:00 +28°C° 0 mm 8 mps 761 mmHg 26%
    14:00 +28°C° 0 mm 8 mps 761 mmHg 28%
    15:00 +28°C° 0 mm 8 mps 760 mmHg 29%
    16:00 +27°C° 0 mm 8 mps 760 mmHg 33%
    17:00 +26°C° 0 mm 7 mps 760 mmHg 36%
    18:00 +24°C° 0 mm 7 mps 760 mmHg 40%
    19:00 +24°C° 0 mm 7 mps 760 mmHg 40%
    20:00 +24°C° 0 mm 6 mps 760 mmHg 40%
    21:00 +24°C° 0 mm 6 mps 760 mmHg 41%
    22:00 +25°C° 0 mm 5 mps 760 mmHg 40%
    23:00 +25°C° 0 mm 5 mps 760 mmHg 40%

    Tomorrow, 26 April, Friday

    Time Temperature Precipitation Wind Pressure Humidity
    00:00 +23°C° 0 mm 5 mps 760 mmHg 39%
    01:00 +23°C° 0 mm 5 mps 760 mmHg 39%
    02:00 +23°C° 0 mm 5 mps 759 mmHg 39%
    03:00 +23°C° 0 mm 6 mps 759 mmHg 39%
    04:00 +23°C° 0 mm 6 mps 759 mmHg 39%
    05:00 +23°C° 0 mm 6 mps 759 mmHg 39%
    06:00 +23°C° 0 mm 6 mps 759 mmHg 39%
    07:00 +26°C° 0 mm 6 mps 760 mmHg 35%
    08:00 +27°C° 0 mm 6 mps 760 mmHg 30%
    09:00 +28°C° 0 mm 6 mps 760 mmHg 26%
    10:00 +29°C° 0 mm 6 mps 760 mmHg 25%
    11:00 +29°C° 0 mm 7 mps 760 mmHg 23%
    12:00 +30°C° 0 mm 7 mps 760 mmHg 22%
    13:00 +30°C° 0 mm 7 mps 760 mmHg 22%
    14:00 +29°C° 0 mm 6 mps 759 mmHg 23%
    15:00 +29°C° 0 mm 6 mps 759 mmHg 24%
    16:00 +29°C° 0 mm 6 mps 759 mmHg 27%
    17:00 +28°C° 0 mm 6 mps 759 mmHg 30%
    18:00 +27°C° 0 mm 5 mps 759 mmHg 34%
    19:00 +27°C° 0 mm 5 mps 759 mmHg 34%
    20:00 +27°C° 0 mm 5 mps 759 mmHg 35%
    21:00 +27°C° 0 mm 5 mps 760 mmHg 36%
    22:00 +27°C° 0 mm 5 mps 760 mmHg 36%
    23:00 +27°C° 0 mm 5 mps 760 mmHg 37%

    Day after tomorrow, 27 April, Saturday

    Time Temperature Precipitation Wind Pressure Humidity
    00:00 +26°C° 0 mm 6 mps 760 mmHg 37%
    01:00 +26°C° 0 mm 5 mps 759 mmHg 35%
    02:00 +26°C° 0 mm 4 mps 759 mmHg 34%
    03:00 +26°C° 0 mm 4 mps 759 mmHg 33%
    04:00 +26°C° 0 mm 4 mps 759 mmHg 35%
    05:00 +26°C° 0 mm 5 mps 759 mmHg 37%
    06:00 +26°C° 0 mm 5 mps 759 mmHg 40%
    07:00 +27°C° 0 mm 4 mps 760 mmHg 36%
    08:00 +27°C° 0 mm 4 mps 760 mmHg 32%
    09:00 +28°C° 0 mm 3 mps 761 mmHg 28%
    10:00 +29°C° 0 mm 3 mps 761 mmHg 25%
    11:00 +29°C° 0 mm 3 mps 760 mmHg 22%
    12:00 +30°C° 0 mm 3 mps 760 mmHg 20%
    13:00 +30°C° 0 mm 3 mps 760 mmHg 20%
    14:00 +30°C° 0 mm 4 mps 759 mmHg 20%
    15:00 +32°C° 0 mm 4 mps 759 mmHg 21%
    16:00 +30°C° 0 mm 5 mps 759 mmHg 25%
    17:00 +29°C° 0 mm 5 mps 759 mmHg 29%
    18:00 +28°C° 0 mm 6 mps 759 mmHg 33%
    19:00 +28°C° 0 mm 5 mps 759 mmHg 34%
    20:00 +27°C° 0 mm 5 mps 759 mmHg 36%
    21:00 +27°C° 0 mm 5 mps 759 mmHg 38%
    22:00 +27°C° 0 mm 4 mps 759 mmHg 38%
    23:00 +27°C° 0 mm 4 mps 759 mmHg 38%

    28 April, Sunday

    Time Temperature Precipitation Wind Pressure Humidity
    00:00 +27°C° 0 mm 3 mps 759 mmHg 37%
    01:00 +26°C° 0 mm 3 mps 758 mmHg 37%
    02:00 +26°C° 0 mm 3 mps 758 mmHg 36%
    03:00 +26°C° 0 mm 3 mps 757 mmHg 36%
    04:00 +26°C° 0 mm 2 mps 757 mmHg 34%
    05:00 +27°C° 0 mm 2 mps 758 mmHg 32%
    06:00 +27°C° 0 mm 2 mps 758 mmHg 31%
    07:00 +28°C° 0 mm 3 mps 758 mmHg 28%
    08:00 +29°C° 0 mm 4 mps 759 mmHg 25%
    09:00 +30°C° 0 mm 5 mps 760 mmHg 21%
    10:00 +32°C° 0 mm 5 mps 759 mmHg 20%
    11:00 +33°C° 0 mm 5 mps 759 mmHg 18%
    12:00 +34°C° 0 mm 5 mps 759 mmHg 17%
    13:00 +33°C° 0 mm 5 mps 758 mmHg 19%
    14:00 +33°C° 0 mm 5 mps 758 mmHg 22%
    15:00 +32°C° 0 mm 5 mps 758 mmHg 24%
    16:00 +30°C° 0 mm 6 mps 758 mmHg 31%
    17:00 +29°C° 0 mm 6 mps 758 mmHg 39%
    18:00 +27°C° 0 mm 7 mps 758 mmHg 46%
    19:00 +27°C° 0 mm 6 mps 759 mmHg 50%
    20:00 +27°C° 0 mm 5 mps 759 mmHg 53%
    21:00 +26°C° 0 mm 3 mps 759 mmHg 57%
    22:00 +26°C° 0 mm 3 mps 759 mmHg 56%
    23:00 +26°C° 0 mm 3 mps 759 mmHg 54%

    29 April, Monday

    Time Temperature Precipitation Wind Pressure Humidity
    00:00 +26°C° 0 mm 3 mps 759 mmHg 53%
    01:00 +26°C° 0 mm 4 mps 758 mmHg 57%
    02:00 +25°C° 0 mm 5 mps 758 mmHg 61%
    03:00 +24°C° 0 mm 6 mps 758 mmHg 66%
    04:00 +24°C° 0 mm 6 mps 758 mmHg 64%
    05:00 +24°C° 0 mm 6 mps 759 mmHg 62%
    06:00 +24°C° 0 mm 6 mps 759 mmHg 60%
    07:00 +26°C° 0 mm 6 mps 759 mmHg 54%
    08:00 +27°C° 0 mm 6 mps 760 mmHg 47%
    09:00 +28°C° 0 mm 7 mps 760 mmHg 41%
    10:00 +29°C° 0 mm 7 mps 760 mmHg 37%
    11:00 +30°C° 0 mm 7 mps 759 mmHg 34%
    12:00 +30°C° 0 mm 7 mps 759 mmHg 30%
    13:00 +30°C° 0 mm 7 mps 759 mmHg 30%
    14:00 +30°C° 0 mm 7 mps 758 mmHg 31%
    15:00 +30°C° 0 mm 7 mps 758 mmHg 31%
    16:00 +29°C° 0 mm 6 mps 758 mmHg 34%
    17:00 +29°C° 0 mm 6 mps 758 mmHg 37%
    18:00 +28°C° 0 mm 6 mps 758 mmHg 41%
    19:00 +28°C° 0 mm 5 mps 758 mmHg 41%
    20:00 +27°C° 0 mm 5 mps 758 mmHg 42%
    21:00 +27°C° 0 mm 5 mps 759 mmHg 43%
    22:00 +27°C° 0 mm 5 mps 758 mmHg 42%
    23:00 +27°C° 0 mm 4 mps 758 mmHg 41%

    30 April, Tuesday

    Time Temperature Precipitation Wind Pressure Humidity
    00:00 +27°C° 0 mm 4 mps 758 mmHg 41%
    01:00 +27°C° 0 mm 4 mps 757 mmHg 40%
    02:00 +27°C° 0 mm 4 mps 757 mmHg 39%
    03:00 +27°C° 0 mm 4 mps 757 mmHg 37%
    04:00 +27°C° 0 mm 4 mps 757 mmHg 37%
    05:00 +27°C° 0 mm 4 mps 757 mmHg 37%
    06:00 +27°C° 0 mm 4 mps 758 mmHg 37%
    07:00 +28°C° 0 mm 4 mps 758 mmHg 32%
    08:00 +30°C° 0 mm 4 mps 758 mmHg 28%
    09:00 +32°C° 0 mm 4 mps 759 mmHg 23%
    10:00 +33°C° 0 mm 4 mps 758 mmHg 21%
    11:00 +34°C° 0 mm 4 mps 758 mmHg 19%
    12:00 +35°C° 0 mm 4 mps 757 mmHg 17%
    13:00 +35°C° 0 mm 4 mps 757 mmHg 18%
    14:00 +35°C° 0 mm 5 mps 756 mmHg 18%
    15:00 +35°C° 0 mm 6 mps 756 mmHg 19%
    16:00 +34°C° 0 mm 6 mps 756 mmHg 22%
    17:00 +33°C° 0 mm 6 mps 756 mmHg 26%
    18:00 +32°C° 0 mm 6 mps 756 mmHg 29%
    19:00 +32°C° 0 mm 5 mps 756 mmHg 30%
    20:00 +30°C° 0 mm 4 mps 756 mmHg 31%
    21:00 +30°C° 0 mm 4 mps 757 mmHg 32%
    22:00 +30°C° 0 mm 4 mps 756 mmHg 31%
    23:00 +30°C° 0 mm 4 mps 756 mmHg 30%
    Show more